Weather History for MMDO - November, 2012

Change the Weather History Date:

Sunday, November 4, 2012

  Actual Average Record
Temperature  
Mean Temperature 64 °F -  
Max Temperature 80 °F 73 °F 82 °F (1996)
Min Temperature 48 °F 37 °F 30 °F (2004)
Degree Days  
Heating Degree Days 1    
Growing Degree Days 14 (Base 50)    
Moisture  
Dew Point 42 °F    
Average Humidity 44    
Maximum Humidity 76    
Minimum Humidity 26    
Precipitation  
Precipitation 0.00 in - - ()
Sea Level Pressure  
Sea Level Pressure 30.03 in    
Wind  
Wind Speed 2 mph ()    
Max Wind Speed 12 mph    
Max Gust Speed -    
Visibility 12.3 miles    
Events      
Averages and records for this station are not official NWS values.
T = Trace of Precipitation, MM = Missing Value Source: Averaged Metar Reports

Daily Weather History Graph

Daily Weather History Graph

Search for Another Location

Airport or City:

Trip Planner

Search our weather history database for the weather conditions in past years. The results will help you decide how hot, cold, wet, or windy it might be!

Date:

Astronomy

Nov. 04, 2012 Rise Set
Actual Time 7:06 AM CST 6:16 PM CST
Civil Twilight 6:43 AM CST 6:40 PM CST
Nautical Twilight 6:16 AM CST 7:07 PM CST
Astronomical Twilight 5:49 AM CST 7:33 PM CST
Moon 11:01 PM CST (11/4) 11:45 AM CST (11/4)
Length of Visible Light 11h 56m
Length of Day
11h 09m
Waning Gibbous, 72% of the Moon is Illuminated
Nov 4
Waning Gibbous
Nov 6
Last Quarter
Nov 13
New
Nov 20
First Quarter
Nov 28
Full

Hourly Weather History & Observations

Time (CST) Temp. Windchill Dew Point Humidity Pressure Visibility Wind Dir Wind Speed Gust Speed Precip Events Conditions
2:55 AM 54 °F - 38 °F 43% 29.86 in 6 mi Calm Calm - -   Mostly Cloudy
5:55 AM 50 °F - 38 °F 54% 29.93 in 6 mi Calm Calm - -   Clear
5:58 AM 44.6 °F 42.2 °F 37.4 °F 76% 29.92 in 10.0 mi West 4.6 mph - N/A   Mostly Cloudy
6:43 AM 44.6 °F - 37.4 °F 76% 30.20 in 10.0 mi NNE 2.3 mph - N/A   Overcast
7:52 AM 46.4 °F - 35.6 °F 66% 30.23 in 12.0 mi Calm Calm - N/A   Overcast
8:49 AM 53.6 °F - 37.4 °F 54% 30.00 in 12.0 mi Calm Calm - N/A   Mostly Cloudy
8:50 AM 53 °F - 43 °F 58% 30.04 in 19 mi Calm Calm - -   Overcast
9:52 AM 62.6 °F - 41.0 °F 45% 30.25 in 12.0 mi North 4.6 mph - N/A   Mostly Cloudy
10:46 AM 66.2 °F - 39.2 °F 37% 30.25 in 14.0 mi NE 4.6 mph - N/A   Overcast
11:46 AM 69 °F - 51 °F 42% 30.01 in 19 mi NE 2.2 mph - -   Overcast
11:51 AM 71.6 °F - 41.0 °F 33% 29.90 in 14.0 mi SE 9.2 mph - N/A   Overcast
12:48 PM 75.2 °F - 42.8 °F 31% 30.21 in 14.0 mi West 2.3 mph - N/A   Mostly Cloudy
1:47 PM 77.0 °F - 41.0 °F 28% 30.16 in 14.0 mi NE 6.9 mph - N/A   Mostly Cloudy
2:43 PM 77 °F - 49 °F 26% 29.86 in 19 mi SE 4.5 mph - -   Overcast
2:45 PM 77.0 °F - 41.0 °F 28% 29.84 in 14.0 mi Calm Calm - N/A   Overcast
3:44 PM 77.0 °F - 41.0 °F 28% 30.16 in 12.0 mi ENE 6.9 mph - N/A   Overcast
4:58 PM 73.4 °F - 39.2 °F 29% 30.15 in 12.0 mi NE 11.5 mph - N/A   Overcast
5:42 PM 69.8 °F - 53.6 °F 56% 29.89 in 12.0 mi NE 6.9 mph - N/A   Mostly Cloudy
5:55 PM 71 °F - 46 °F 30% 29.81 in 19 mi ESE 4.5 mph - -   Overcast
6:40 PM 64.4 °F - 42.8 °F 45% 30.16 in 12.0 mi NE 5.8 mph - N/A   Mostly Cloudy
7:42 PM 64.4 °F - 42.8 °F 45% 30.22 in 10.0 mi Calm Calm - N/A   Mostly Cloudy
8:47 PM 65 °F - 42 °F 32% 29.81 in 6 mi NE 2.2 mph - -   Overcast
11:47 PM 61 °F - 46 °F 46% 29.86 in 6 mi NE 2.2 mph - -   Mostly Cloudy